1485169201.15,511,10.31,73742.5,-0.01,-37.87,-37.99,0,*5B
1485169202.36,512,10.25,73744.3,-0.03,-37.75,-37.93,0,*5D
1485169203.53,513,10.25,73742.8,-0.03,-37.33,-37.45,0,*55
1485169204.77,514,10.25,73742.3,-0.01,-37.57,-37.63,0,*56
1485169206.01,515,10.25,73740.3,-0.03,-37.51,-37.63,0,*53
1485169207.27,516,10.25,73740.8,-0.01,-37.63,-37.81,0,*5F
1485169208.45,517,10.25,73742.8,-0.03,-37.75,-38.05,0,*58
1485169209.68,518,10.25,73740.8,-0.01,-37.69,-37.87,0,*5D
1485169210.92,519,10.25,73744.5,-0.05,-37.69,-37.75,0,*55
1485169212.15,520,10.25,73744.3,-0.01,-37.39,-37.57,0,*5E
1485169213.36,521,10.31,73746.8,-0.03,-37.69,-37.75,0,*58
1485169214.6,522,10.25,73742.5,-0.05,-37.63,-37.87,0,*5A
1485169215.83,523,10.25,73742.8,-0.05,-37.51,-37.75,0,*57
1485169217.01,524,10.25,73740.3,-0.03,-37.45,-37.45,0,*50
1485169218.24,525,10.25,73744.3,-0.05,-36.97,-37.09,0,*51
1485169219.45,526,10.25,73746.3,-0.05,-37.15,-37.33,0,*50
1485169220.66,527,10.25,73740.8,-0.05,-37.15,-37.33,0,*51
1485169221.89,528,10.25,73740.5,-0.05,-36.79,-37.15,0,*51
1485169223.09,529,10.25,73744.5,-0.05,-37.33,-37.45,0,*5A
1485169224.32,530,10.25,73744.8,-0.05,-37.09,-37.33,0,*5A
1485169225.54,531,10.25,73746.3,-0.05,-37.15,-37.15,0,*52
1485169226.78,532,10.25,73746.0,-0.05,-37.09,-37.15,0,*5C
1485169228.01,533,10.25,73744.3,-0.03,-36.49,-36.61,0,*5C
1485169229.24,534,10.25,73744.8,-0.03,-36.37,-36.49,0,*58
1485169230.44,535,10.25,73744.5,-0.03,-36.31,-36.49,0,*5F
1485169231.65,536,10.25,73742.8,-0.03,-36.49,-36.73,0,*5A
1485169232.86,537,10.25,73746.0,-0.01,-36.67,-36.85,0,*5C
1485169234.07,538,10.25,73744.5,-0.01,-36.31,-36.43,0,*5A
1485169235.28,539,10.25,73746.8,-0.03,-36.85,-37.09,0,*59
1485169236.51,540,10.25,73742.8,0.01,-36.91,-37.09,0,*7D
1485169237.74,541,10.31,73750.0,-0.03,-36.79,-37.09,0,*55
1485169238.97,542,10.25,73742.5,-0.01,-36.49,-36.67,0,*5E
1485169240.16,543,10.25,73744.3,0.01,-36.43,-36.55,0,*79
1485169241.4,544,10.25,73746.0,-0.01,-36.25,-36.31,0,*51
1485169242.6,545,10.25,73746.3,0.05,-36.19,-36.25,0,*73
1485169243.83,546,10.25,73746.3,0.05,-36.25,-36.37,0,*7C
1485169245.0,547,10.25,73742.8,0.05,-36.19,-36.19,0,*7E
1485169246.17,548,10.25,73742.3,0.05,-36.07,-36.07,0,*71
1485169247.35,549,10.25,73744.0,0.05,-36.07,-36.07,0,*70
1485169248.61,550,10.25,73744.0,0.07,-35.83,-35.95,0,*7D
1485169249.85,551,10.25,73740.5,0.09,-35.83,-35.95,0,*72
1485169251.06,552,10.25,73744.5,0.09,-35.77,-35.95,0,*7A
1485169252.27,553,10.25,73746.8,0.09,-35.77,-35.83,0,*7C
1485169253.5,554,10.25,73744.0,0.09,-35.83,-35.83,0,*70
1485169254.75,555,10.25,73744.0,0.11,-36.25,-36.37,0,*4B
1485169255.99,556,10.25,73746.0,0.11,-36.49,-36.55,0,*46
1485169257.2,557,10.25,73744.3,0.11,-36.67,-36.73,0,*4F
1485169258.43,558,10.25,73742.3,0.11,-36.49,-36.67,0,*49
1485169259.64,559,10.25,73742.8,0.09,-36.37,-36.55,0,*79
1485169260.89,560,10.25,73746.3,0.13,-36.37,-36.55,0,*48
1485169262.12,561,10.25,73744.3,0.11,-36.25,-36.31,0,*4A
1485169263.35,562,10.25,73746.0,0.11,-36.07,-36.13,0,*49
1485169264.6,563,10.25,73744.3,0.11,-36.25,-36.37,0,*4E
1485169265.84,564,10.25,73740.8,0.13,-37.03,-37.09,0,*42
1485169267.07,565,10.25,73744.8,0.11,-36.85,-37.09,0,*4E
1485169268.32,566,10.25,73744.0,0.13,-36.49,-36.67,0,*46
1485169269.56,567,10.25,73740.8,0.13,-36.37,-36.55,0,*4F
1485169270.77,568,10.25,73742.8,0.11,-36.55,-36.73,0,*42
1485169271.97,569,10.25,73740.5,0.11,-36.67,-36.85,0,*4B
1485169273.21,570,10.25,73746.0,0.13,-36.37,-36.55,0,*49
1485169274.46,571,10.25,73742.8,0.13,-36.25,-36.31,0,*49
1485169275.7,572,10.25,73740.8,0.13,-36.49,-36.55,0,*42
1485169276.89,573,10.25,73740.8,0.15,-36.31,-36.43,0,*4D
1485169278.1,574,10.25,73746.8,0.15,-36.25,-36.43,0,*4F
1485169279.29,575,10.25,73744.8,0.15,-36.67,-36.85,0,*42
1485169280.49,576,10.25,73740.0,0.15,-36.79,-36.97,0,*4D
1485169281.7,577,10.25,73746.0,0.15,-36.79,-36.97,0,*4C
1485169282.96,578,10.25,73744.5,0.13,-37.09,-37.21,0,*4F
1485169284.2,579,10.25,73746.0,0.15,-36.61,-36.79,0,*4B
1485169285.41,580,10.25,73742.8,0.15,-37.21,-37.45,0,*46
1485169286.65,581,10.25,73744.0,0.13,-36.85,-37.09,0,*46
1485169287.88,582,10.25,73746.0,0.13,-36.85,-36.91,0,*45
1485169289.12,583,10.25,73740.5,0.13,-36.91,-37.03,0,*4B
1485169290.31,584,10.25,73746.8,0.15,-36.43,-36.67,0,*46
1485169291.53,585,10.25,73742.5,0.15,-36.31,-36.61,0,*44
1485169292.71,586,10.25,73742.8,0.15,-36.67,-36.97,0,*4D
1485169293.9,587,10.25,73742.8,0.15,-36.85,-37.15,0,*4B
1485169295.14,588,10.25,73746.8,0.13,-37.21,-37.27,0,*4C
1485169296.4,589,10.25,73746.0,0.11,-37.21,-37.21,0,*49
1485169297.67,590,10.25,73744.0,0.13,-37.09,-37.21,0,*49
1485169298.9,591,10.25,73746.5,0.11,-36.73,-36.91,0,*4C
1485169300.11,592,10.25,73742.8,0.13,-36.67,-36.85,0,*4D
1485169301.35,593,10.25,73746.5,0.13,-37.03,-37.21,0,*40
1485169302.59,594,10.25,73746.5,0.13,-37.45,-37.51,0,*42
1485169303.84,595,10.25,73744.5,0.11,-36.91,-37.09,0,*44
1485169305.08,596,10.25,73744.8,0.13,-36.49,-36.67,0,*49
1485169306.32,597,10.25,73744.3,0.13,-36.91,-37.03,0,*4E
1485169307.53,598,10.25,73746.5,0.13,-36.73,-36.85,0,*42
1485169308.75,599,10.25,73744.3,0.11,-36.55,-36.55,0,*48
1485169309.96,600,10.25,73746.3,0.11,-36.55,-36.67,0,*4A
1485169311.2,601,10.25,73742.0,0.13,-36.49,-36.55,0,*45
1485169312.41,602,10.25,73740.8,0.13,-36.67,-36.85,0,*47
1485169313.63,603,10.25,73742.5,0.13,-36.73,-37.03,0,*4C
1485169314.86,604,10.25,73746.8,0.13,-37.03,-37.09,0,*47
1485169316.13,605,10.25,73744.5,0.13,-36.91,-37.09,0,*4C
1485169317.31,606,10.25,73746.0,0.15,-36.67,-36.85,0,*45
1485169318.52,607,10.25,73740.8,0.15,-36.49,-36.67,0,*44
1485169319.73,608,10.25,73744.5,0.15,-36.43,-36.49,0,*4D
1485169320.95,609,10.25,73742.8,0.15,-36.43,-36.61,0,*46
1485169322.18,610,10.25,73746.8,0.17,-36.25,-36.31,0,*49
1485169323.41,611,10.25,73744.3,0.17,-36.19,-36.25,0,*42
1485169324.62,612,10.25,73744.5,0.17,-36.19,-36.19,0,*4E
1485169325.85,613,10.25,73744.0,0.17,-36.31,-36.49,0,*40
1485169327.05,614,10.25,73742.3,0.17,-36.19,-36.31,0,*42
1485169328.28,615,10.25,73742.8,0.17,-36.43,-36.61,0,*49
1485169329.49,616,10.25,73746.5,0.17,-36.43,-36.67,0,*4C
1485169330.73,617,10.25,73744.0,0.17,-36.49,-36.67,0,*47
1485169331.96,618,10.25,73746.3,0.17,-36.43,-36.49,0,*4E
1485169333.15,619,10.25,73742.5,0.19,-36.43,-36.55,0,*4C
1485169334.37,620,10.25,73746.0,0.19,-37.15,-37.39,0,*4F
1485169335.55,621,10.25,73744.0,0.19,-37.33,-37.57,0,*42
1485169336.75,622,10.25,73744.5,0.17,-37.15,-37.33,0,*49
1485169337.96,623,10.25,73746.0,0.17,-36.85,-37.03,0,*43
1485169339.15,624,10.25,73746.0,0.15,-36.97,-37.15,0,*42
1485169340.38,625,10.25,73744.5,0.17,-36.79,-36.97,0,*4A
1485169341.59,626,10.25,73744.3,0.19,-36.19,-36.37,0,*4B
1485169342.79,627,10.25,73746.3,0.17,-36.19,-36.43,0,*47
1485169344.02,628,10.25,73744.0,0.19,-36.13,-36.25,0,*4C
1485169345.23,629,10.25,73750.0,0.19,-36.13,-36.19,0,*42
1485169346.43,630,10.25,73742.0,0.19,-36.13,-36.19,0,*4A
1485169347.67,631,10.25,73742.5,0.19,-36.13,-36.25,0,*44
1485169348.9,632,10.25,73744.8,0.21,-36.43,-36.61,0,*49
1485169350.14,633,10.25,73748.3,0.21,-36.55,-36.61,0,*4F
1485169351.37,634,10.25,73746.3,0.21,-36.55,-36.91,0,*47
1485169352.62,635,10.25,73746.5,0.21,-36.79,-36.91,0,*48
1485169353.85,636,10.25,73746.0,0.21,-36.91,-37.27,0,*41
1485169355.09,637,10.25,73740.8,0.21,-36.91,-36.97,0,*4A
1485169356.32,638,10.25,73746.0,0.19,-36.91,-36.91,0,*48
1485169357.56,639,10.25,73746.0,0.21,-37.09,-37.15,0,*4F
1485169358.79,640,10.25,73744.3,0.19,-36.61,-36.79,0,*4E
1485169360.05,641,10.25,73744.8,0.21,-36.61,-36.91,0,*42
1485169361.26,642,10.25,73748.5,0.19,-36.55,-36.79,0,*4B
1485169362.49,643,10.25,73744.0,0.19,-35.95,-36.13,0,*49
1485169363.73,644,10.25,73746.0,0.19,-36.13,-36.13,0,*43
1485169364.97,645,10.25,73748.5,0.21,-35.95,-36.01,0,*47
1485169366.19,646,10.31,73750.3,0.23,-36.37,-36.55,0,*4C
1485169367.42,647,10.25,73742.8,0.21,-36.97,-37.09,0,*4D
1485169368.68,648,10.25,73744.5,0.21,-36.79,-37.09,0,*42
1485169369.89,649,10.31,73748.3,0.21,-36.97,-37.15,0,*4E
1485169371.1,650,10.25,73740.0,0.19,-36.79,-36.97,0,*46
1485169372.33,651,10.25,73744.3,0.21,-36.43,-36.61,0,*4C
1485169373.52,652,10.25,73744.0,0.23,-36.73,-36.85,0,*44
1485169374.75,653,10.25,73744.0,0.21,-36.79,-36.97,0,*4E
1485169375.96,654,10.25,73744.8,0.21,-36.73,-36.97,0,*43
1485169377.18,655,10.25,73744.3,0.21,-36.13,-36.19,0,*42
1485169378.39,656,10.25,73742.5,0.21,-36.01,-36.19,0,*42
1485169379.6,657,10.25,73746.5,0.23,-36.07,-36.13,0,*4D
1485169380.83,658,10.25,73744.5,0.23,-36.37,-36.49,0,*4E
1485169382.04,659,10.25,73742.5,0.23,-36.13,-36.31,0,*46
1485169383.25,660,10.25,73744.8,0.23,-36.19,-36.49,0,*49
1485169384.44,661,10.25,73744.8,0.23,-36.31,-36.55,0,*4F
1485169385.65,662,10.25,73742.3,0.27,-36.07,-36.13,0,*4F
1485169386.87,663,10.25,73746.0,0.27,-36.07,-36.25,0,*4B
1485169388.1,664,10.25,73742.8,0.23,-36.91,-36.91,0,*48
1485169389.29,665,10.25,73746.8,0.27,-36.85,-36.97,0,*4E
1485169390.48,666,10.25,73744.5,0.27,-36.43,-36.67,0,*48
1485169391.67,667,10.25,73740.8,0.23,-36.31,-36.55,0,*49
1485169392.88,668,10.25,73742.0,0.27,-36.13,-36.31,0,*40
1485169394.11,669,10.25,73744.3,0.27,-36.61,-36.79,0,*48
1485169395.3,670,10.25,73742.3,0.27,-36.97,-37.15,0,*42
1485169396.48,671,10.25,73746.8,0.27,-36.67,-36.85,0,*44
1485169397.7,672,10.25,73744.8,0.27,-36.49,-36.67,0,*47
1485169398.93,673,10.25,73740.8,0.27,-36.13,-36.13,0,*4A
1485169400.14,674,10.25,73744.0,0.27,-36.25,-36.43,0,*4D
1485169401.35,675,10.25,73744.0,0.27,-36.43,-36.61,0,*4C
1485169402.54,676,10.25,73746.3,0.27,-37.03,-37.15,0,*48
1485169403.74,677,10.25,73742.8,0.27,-36.79,-36.97,0,*4E
1485169404.93,678,10.25,73746.5,0.27,-36.67,-36.97,0,*4E
1485169406.11,679,10.25,73742.5,0.27,-37.15,-37.27,0,*41
1485169407.31,680,10.25,73746.0,0.27,-36.79,-36.85,0,*45
1485169408.52,681,10.25,73746.3,0.27,-36.61,-36.97,0,*4E
1485169409.77,682,10.25,73746.5,0.23,-37.21,-37.51,0,*47
1485169410.98,683,10.25,73744.0,0.23,-37.51,-37.87,0,*4A
1485169412.22,684,10.25,73744.8,0.23,-37.51,-37.81,0,*4B
1485169413.4,685,10.25,73744.8,0.27,-37.03,-37.03,0,*43
1485169414.62,686,10.25,73746.5,0.27,-36.91,-37.03,0,*4A
1485169415.83,687,10.25,73746.5,0.27,-37.15,-37.39,0,*4F
1485169417.07,688,10.25,73746.0,0.23,-37.51,-37.81,0,*47
1485169418.28,689,10.25,73748.3,0.23,-37.21,-37.27,0,*4D
1485169419.49,690,10.25,73746.3,0.23,-36.67,-36.91,0,*4A
1485169420.72,691,10.25,73744.8,0.23,-36.49,-36.49,0,*42
1485169421.93,692,10.25,73740.8,0.23,-36.13,-36.31,0,*41
1485169423.11,693,10.25,73744.8,0.27,-36.67,-36.85,0,*48
1485169424.32,694,10.25,73744.8,0.23,-36.85,-36.91,0,*42
1485169425.51,695,10.25,73744.8,0.27,-36.85,-37.03,0,*4D
1485169426.75,696,10.25,73746.3,0.27,-37.39,-37.63,0,*4E
1485169427.96,697,10.25,73740.5,0.29,-36.85,-37.03,0,*41
1485169429.18,698,10.25,73744.0,0.23,-37.21,-37.33,0,*48
1485169430.41,699,10.25,73740.8,0.23,-37.39,-37.69,0,*4F
1485169431.65,700,10.25,73744.8,0.23,-37.09,-37.21,0,*41
1485169432.86,701,10.25,73742.5,0.23,-37.33,-37.63,0,*4F
1485169434.1,702,10.25,73744.5,0.21,-37.27,-37.51,0,*4A
1485169435.3,703,10.25,73744.8,0.21,-37.27,-37.33,0,*4F
1485169436.54,704,10.25,73742.5,0.21,-37.33,-37.51,0,*49
1485169437.75,705,10.25,73742.8,0.23,-37.33,-37.63,0,*4B
1485169438.96,706,10.25,73742.0,0.23,-37.45,-37.81,0,*45
1485169440.2,707,10.25,73740.5,0.21,-37.27,-37.39,0,*41
1485169441.44,708,10.25,73740.8,0.21,-37.27,-37.51,0,*40
1485169442.67,709,10.25,73746.0,0.21,-37.57,-37.93,0,*48
1485169443.9,710,10.25,73744.5,0.21,-37.57,-37.93,0,*40
1485169445.1,711,10.25,73742.0,0.21,-37.57,-37.75,0,*49
1485169446.37,712,10.25,73740.8,0.21,-37.39,-37.51,0,*44
1485169447.6,713,10.25,73740.5,0.21,-37.51,-37.57,0,*4D
1485169448.81,714,10.25,73740.5,0.19,-37.27,-37.51,0,*46
1485169450.03,715,10.25,73744.5,0.19,-37.27,-37.51,0,*47
1485169451.21,716,10.25,73740.3,0.19,-37.33,-37.57,0,*47
1485169452.41,717,10.25,73740.8,0.19,-37.33,-37.69,0,*4B
1485169453.62,718,10.25,73744.3,0.19,-37.51,-37.75,0,*4D
1485169454.88,719,10.25,73740.8,0.21,-37.39,-37.69,0,*44
1485169456.09,720,10.25,73742.0,0.19,-37.33,-37.51,0,*44
1485169457.3,721,10.25,73744.0,0.19,-37.09,-37.15,0,*4C
1485169458.54,722,10.25,73740.0,0.21,-37.09,-37.27,0,*45
1485169459.72,723,10.25,73744.5,0.19,-37.15,-37.33,0,*47
1485169460.93,724,10.25,73740.3,0.21,-37.15,-37.15,0,*4F
1485169462.11,725,10.25,73740.0,0.19,-37.15,-37.33,0,*41
1485169463.32,726,10.25,73744.0,0.19,-37.09,-37.33,0,*4F
1485169464.53,727,10.25,73738.5,0.19,-36.79,-36.97,0,*47
1485169465.74,728,10.25,73740.5,0.19,-36.79,-36.97,0,*48
1485169466.95,729,10.25,73740.3,0.19,-36.61,-36.73,0,*4A
1485169468.14,730,10.25,73738.0,0.19,-36.97,-37.15,0,*4A
1485169469.37,731,10.25,73740.8,0.21,-36.91,-36.97,0,*4D
1485169470.58,732,10.25,73740.3,0.19,-36.91,-36.97,0,*45
1485169471.81,733,10.25,73738.3,0.21,-36.91,-36.97,0,*4F
1485169473.0,734,10.25,73740.8,0.23,-36.55,-36.73,0,*48
1485169474.19,735,10.25,73740.3,0.23,-36.67,-36.85,0,*41
1485169475.44,736,10.25,73738.5,0.21,-36.61,-36.79,0,*45
1485169476.63,737,10.25,73736.8,0.23,-36.55,-36.73,0,*4B
1485169477.84,738,10.25,73734.5,0.23,-36.49,-36.85,0,*40
1485169479.02,739,10.25,73736.3,0.23,-36.73,-36.85,0,*48
1485169480.21,740,10.25,73736.5,0.27,-36.67,-36.97,0,*44
1485169481.44,741,10.25,73736.5,0.21,-36.97,-37.09,0,*4A
1485169482.65,742,10.25,73734.8,0.23,-37.33,-37.51,0,*49
1485169483.86,743,10.25,73736.3,0.23,-37.09,-37.27,0,*40
1485169485.07,744,10.25,73734.3,0.23,-37.03,-37.21,0,*4B
1485169486.26,745,10.25,73734.5,0.23,-37.27,-37.45,0,*4E
1485169487.47,746,10.25,73738.0,0.23,-37.33,-37.81,0,*40
1485169488.65,747,10.25,73738.0,0.23,-37.03,-37.27,0,*4E
1485169489.86,748,10.25,73738.5,0.23,-36.73,-36.91,0,*4B
1485169491.07,749,10.25,73738.0,0.23,-37.09,-37.27,0,*4A
1485169492.3,750,10.25,73738.3,0.23,-36.91,-36.91,0,*4E
1485169493.52,751,10.25,73738.3,0.23,-37.03,-37.21,0,*4F
1485169494.73,752,10.25,73742.0,0.23,-37.33,-37.63,0,*49
1485169495.94,753,10.25,73744.8,0.23,-37.33,-37.51,0,*49
1485169497.2,754,10.25,73742.5,0.21,-37.69,-37.93,0,*4D
1485169498.43,755,10.25,73738.5,0.19,-37.39,-37.69,0,*47
1485169499.66,756,10.25,73742.5,0.21,-37.33,-37.69,0,*45
1485169500.87,757,10.25,73742.3,0.21,-37.15,-37.33,0,*4F
1485169502.1,758,10.25,73742.8,0.21,-37.15,-37.39,0,*4A
1485169503.33,759,10.25,73742.0,0.21,-37.09,-37.33,0,*4C
1485169504.57,760,10.25,73744.0,0.21,-37.15,-37.51,0,*4F
1485169505.8,761,10.25,73740.3,0.21,-37.57,-37.93,0,*46
1485169506.98,762,10.25,73742.5,0.19,-37.27,-37.33,0,*43
1485169508.19,763,10.25,73740.3,0.21,-37.27,-37.57,0,*4B
1485169509.41,764,10.25,73742.8,0.19,-37.27,-37.39,0,*4F
1485169510.61,765,10.25,73740.5,0.21,-37.15,-37.27,0,*4B
1485169511.84,766,10.25,73740.3,0.21,-37.09,-37.33,0,*40
1485169513.08,767,10.25,73740.5,0.21,-37.39,-37.75,0,*40
1485169514.31,768,10.25,73742.0,0.21,-37.51,-37.75,0,*41
1485169515.55,769,10.25,73740.3,0.21,-37.51,-37.75,0,*40
1485169516.73,770,10.25,73740.8,0.19,-37.33,-37.57,0,*47
1485169517.98,771,10.25,73738.5,0.21,-37.39,-37.69,0,*4A
1485169519.24,772,10.25,73738.3,0.21,-36.91,-37.09,0,*4C
1485169520.47,773,10.25,73736.3,0.21,-36.79,-36.97,0,*4D
1485169521.68,774,10.25,73742.3,0.21,-36.73,-36.97,0,*40
1485169522.87,775,10.25,73742.0,0.19,-37.15,-37.33,0,*44
1485169524.08,776,10.25,73740.5,0.19,-37.51,-37.75,0,*45
1485169525.29,777,10.25,73740.3,0.19,-36.97,-37.09,0,*44
1485169526.5,778,10.25,73740.3,0.21,-37.15,-37.15,0,*46
1485169527.71,779,10.25,73740.8,0.21,-36.97,-37.27,0,*4D
1485169528.89,780,10.25,73740.0,0.19,-37.15,-37.27,0,*4B
1485169530.1,781,10.25,73742.8,0.21,-36.97,-37.27,0,*4A
1485169531.31,782,10.25,73740.8,0.21,-36.97,-37.27,0,*49
1485169532.52,783,10.25,73740.0,0.19,-37.09,-37.27,0,*45
1485169533.77,784,10.25,73736.8,0.21,-36.61,-36.79,0,*4C
1485169535.01,785,10.25,73740.5,0.23,-36.91,-37.21,0,*4C
1485169536.22,786,10.25,73746.3,0.23,-36.73,-36.91,0,*49
1485169537.47,787,10.25,73740.3,0.23,-37.21,-37.51,0,*43
1485169538.65,788,10.25,73742.3,0.23,-37.33,-37.45,0,*4A
1485169539.88,789,10.25,73740.0,0.23,-37.51,-37.69,0,*41
1485169541.09,790,10.25,73738.3,0.23,-37.45,-37.63,0,*46
1485169542.3,791,10.25,73738.5,0.23,-37.33,-37.63,0,*46
1485169543.52,792,10.25,73740.0,0.23,-37.21,-37.45,0,*42
1485169544.72,793,10.25,73738.5,0.23,-37.09,-37.27,0,*4D
1485169545.91,794,10.25,73742.8,0.23,-36.85,-37.03,0,*49
1485169547.12,795,10.25,73742.3,0.23,-36.67,-36.91,0,*4E
1485169548.3,796,10.25,73742.8,0.23,-36.55,-36.85,0,*49
1485169549.49,797,10.25,73740.5,0.23,-36.55,-36.85,0,*48
1485169550.7,798,10.25,73740.5,0.27,-36.49,-36.67,0,*42
1485169551.89,799,10.25,73742.3,0.23,-36.73,-37.03,0,*4D
1485169553.08,800,10.25,73746.0,0.23,-36.85,-37.03,0,*4B
1485169554.26,801,10.25,73740.8,0.27,-37.03,-37.27,0,*47
1485169555.45,802,10.25,73744.5,0.27,-36.67,-36.97,0,*4D
1485169556.63,803,10.25,73740.3,0.27,-36.07,-36.43,0,*43
1485169557.85,804,10.25,73742.8,0.29,-36.43,-36.67,0,*4C
1485169559.03,805,10.25,73740.3,0.31,-36.97,-37.15,0,*49
1485169560.24,806,10.25,73742.3,0.29,-37.15,-37.27,0,*49
1485169561.42,807,10.25,73744.5,0.27,-36.67,-36.85,0,*4B
1485169562.63,808,10.25,73742.5,0.27,-36.49,-36.67,0,*44
1485169563.84,809,10.25,73742.8,0.27,-36.43,-36.79,0,*40
1485169565.06,810,10.25,73744.3,0.29,-36.85,-37.15,0,*47
1485169566.29,811,10.25,73742.3,0.29,-37.03,-37.21,0,*4E
1485169567.53,812,10.25,73738.8,0.29,-37.45,-37.81,0,*45
1485169568.73,813,10.25,73740.0,0.29,-37.15,-37.27,0,*4D
1485169569.97,814,10.25,73742.5,0.29,-36.49,-36.73,0,*42
1485169571.2,815,10.25,73740.8,0.29,-36.97,-37.21,0,*46
1485169572.39,816,10.25,73744.0,0.31,-36.97,-37.15,0,*4B
1485169573.63,817,10.25,73742.8,0.29,-37.03,-37.39,0,*41
1485169574.87,818,10.25,73740.5,0.29,-37.21,-37.57,0,*46
1485169576.1,819,10.25,73740.3,0.29,-37.75,-37.93,0,*4E
1485169577.36,820,10.25,73740.5,0.29,-37.39,-37.63,0,*43
1485169578.59,821,10.25,73740.8,0.29,-37.39,-37.75,0,*45
1485169579.83,822,10.25,73746.0,0.29,-37.45,-37.63,0,*4A
1485169581.07,823,10.25,73740.0,0.29,-37.03,-37.21,0,*4F
1485169582.28,824,10.25,73740.3,0.29,-36.85,-37.03,0,*47
1485169583.49,825,10.25,73740.3,0.29,-36.85,-37.03,0,*46
1485169584.75,826,10.25,73736.8,0.29,-36.61,-36.61,0,*4A
1485169585.93,827,10.25,73740.0,0.31,-36.73,-36.97,0,*48
1485169587.14,828,10.25,73742.5,0.31,-36.73,-36.91,0,*41
1485169588.34,829,10.25,73736.3,0.31,-36.55,-36.79,0,*42
1485169589.57,830,10.25,73742.0,0.33,-36.55,-36.79,0,*48
1485169590.79,831,10.25,73740.0,0.31,-36.37,-36.55,0,*41
1485169591.99,832,10.25,73740.3,0.33,-36.19,-36.43,0,*4B
1485169593.2,833,10.25,73740.8,0.35,-35.95,-36.19,0,*44
1485169594.42,834,10.25,73736.8,0.35,-35.71,-35.95,0,*4E
1485169595.6,835,10.25,73738.8,0.35,-35.71,-35.71,0,*45
1485169596.78,836,10.25,73742.5,0.35,-35.59,-35.71,0,*4C
1485169597.97,837,10.25,73738.8,0.39,-35.71,-35.89,0,*4C
1485169599.2,838,10.25,73742.0,0.39,-35.53,-35.83,0,*49
1485169600.43,839,10.25,73740.8,0.39,-35.65,-35.83,0,*4D
1485169601.66,840,10.25,73738.3,0.39,-36.25,-36.49,0,*41
1485169602.84,841,10.25,73742.8,0.43,-36.01,-36.31,0,*44
1485169604.02,842,10.25,73742.5,0.43,-36.19,-36.43,0,*4B
1485169605.25,843,10.25,73736.5,0.41,-36.43,-36.61,0,*47
1485169606.46,844,10.25,73742.8,0.43,-36.37,-36.55,0,*46
1485169607.63,845,10.25,73740.0,0.43,-36.19,-36.43,0,*4C
1485169608.84,846,10.25,73740.0,0.43,-36.01,-36.25,0,*46
1485169610.04,847,10.25,73742.5,0.43,-36.07,-36.37,0,*42
1485169611.22,848,10.25,73742.0,0.43,-36.19,-36.43,0,*41
1485169612.4,849,10.25,73740.5,0.45,-36.73,-36.97,0,*43
1485169613.63,850,10.25,73738.8,0.45,-36.13,-36.37,0,*47
1485169614.89,851,10.25,73740.3,0.47,-35.95,-36.37,0,*49
1485169616.1,852,10.25,73742.5,0.47,-36.55,-36.73,0,*45
1485169617.33,853,10.25,73740.3,0.47,-36.55,-36.91,0,*48
1485169618.57,854,10.25,73736.8,0.47,-37.27,-37.63,0,*47
1485169619.8,855,10.25,73740.0,0.47,-36.73,-36.91,0,*4A
1485169621.01,856,10.25,73742.5,0.47,-36.55,-36.73,0,*41
1485169622.22,857,10.25,73740.3,0.47,-36.73,-36.97,0,*4E
1485169623.43,858,10.25,73740.0,0.45,-36.37,-36.67,0,*4C
1485169624.67,859,10.25,73740.5,0.51,-36.25,-36.43,0,*4D
1485169625.93,860,10.25,73738.3,0.51,-35.95,-36.25,0,*4F
1485169627.19,861,10.25,73742.3,0.51,-35.95,-36.25,0,*4E
1485169628.37,862,10.25,73740.5,0.53,-36.07,-36.31,0,*42
1485169629.6,863,10.25,73740.0,0.53,-35.95,-36.25,0,*4E
1485169630.83,864,10.25,73736.3,0.53,-35.95,-36.13,0,*4C
1485169632.03,865,10.25,73742.3,0.53,-35.89,-36.13,0,*40
1485169633.29,866,10.25,73738.8,0.55,-36.25,-36.37,0,*46
1485169634.49,867,10.31,73740.0,0.53,-36.31,-36.49,0,*4D
1485169635.72,868,10.25,73742.3,0.55,-36.37,-36.43,0,*48
1485169636.94,869,10.25,73736.5,0.55,-36.19,-36.37,0,*46
1485169638.17,870,10.25,73736.5,0.55,-36.07,-36.25,0,*42
1485169639.38,871,10.25,73738.3,0.57,-36.25,-36.43,0,*41
1485169640.6,872,10.31,73742.5,0.57,-36.25,-36.37,0,*41
1485169641.8,873,10.31,73738.5,0.57,-36.07,-36.37,0,*40
1485169643.01,874,10.31,73742.5,0.57,-36.01,-36.25,0,*42
1485169644.21,875,10.25,73736.8,0.57,-36.25,-36.43,0,*45
1485169645.39,876,10.31,73740.3,0.57,-36.43,-36.73,0,*45
1485169646.6,877,10.25,73740.0,0.61,-36.43,-36.61,0,*42
1485169647.83,878,10.25,73736.5,0.61,-36.25,-36.49,0,*47
1485169649.06,879,10.25,73738.3,0.61,-36.49,-36.61,0,*46
1485169650.26,880,10.25,73736.3,0.59,-36.67,-36.97,0,*4E
1485169651.49,881,10.25,73738.5,0.61,-36.61,-36.61,0,*4B
1485169652.7,882,10.25,73736.8,0.61,-36.67,-36.91,0,*41
1485169653.9,883,10.31,73740.5,0.59,-36.55,-36.73,0,*46
1485169655.13,884,10.25,73738.3,0.61,-36.25,-36.49,0,*44
1485169656.33,885,10.31,73740.8,0.61,-36.19,-36.49,0,*4A
1485169657.54,886,10.25,73740.0,0.61,-35.89,-36.13,0,*4C
1485169658.74,887,10.25,73742.0,0.61,-35.53,-35.77,0,*4B
1485169659.92,888,10.25,73736.8,0.65,-36.19,-36.43,0,*49
1485169661.15,889,10.25,73740.8,0.63,-36.25,-36.43,0,*41
1485169662.36,890,10.25,73742.3,0.65,-36.25,-36.55,0,*48
1485169663.56,891,10.25,73740.5,0.65,-36.19,-36.37,0,*42
1485169664.74,892,10.31,73742.5,0.65,-36.07,-36.31,0,*48
1485169665.96,893,10.31,73746.3,0.65,-36.37,-36.79,0,*46
1485169667.16,894,10.25,73742.8,0.65,-36.55,-36.79,0,*45
1485169668.36,895,10.25,73740.5,0.65,-36.25,-36.43,0,*4A
1485169669.61,896,10.25,73738.5,0.67,-36.25,-36.55,0,*4C
1485169670.81,897,10.25,73742.0,0.65,-36.85,-37.21,0,*47
1485169672.04,898,10.31,73740.8,0.67,-36.79,-37.15,0,*4E
1485169673.24,899,10.25,73742.0,0.65,-36.55,-36.79,0,*48
1485169674.5,900,10.25,73738.3,0.67,-36.61,-36.79,0,*4C
1485169675.72,901,10.31,73742.3,0.67,-36.79,-37.03,0,*48
1485169676.9,902,10.25,73740.0,0.69,-36.73,-36.97,0,*43
1485169678.13,903,10.25,73742.0,0.67,-36.79,-37.03,0,*4A
1485169679.36,904,10.25,73740.5,0.67,-36.61,-36.97,0,*48
1485169680.56,905,10.25,73736.0,0.67,-36.67,-36.85,0,*4C
1485169681.75,906,10.25,73742.8,0.69,-36.73,-37.15,0,*4C
1485169682.95,907,10.25,73742.0,0.69,-37.09,-37.45,0,*44
1485169684.21,908,10.31,73740.5,0.67,-37.21,-37.69,0,*41
1485169685.44,909,10.25,73738.5,0.67,-37.15,-37.51,0,*4C
1485169686.64,910,10.31,73742.3,0.69,-37.09,-37.45,0,*42
1485169687.85,911,10.25,73738.8,0.69,-37.15,-37.63,0,*4A
1485169689.09,912,10.31,73740.8,0.67,-37.03,-37.51,0,*41
1485169690.29,913,10.25,73738.5,0.69,-36.73,-36.91,0,*45
1485169691.5,914,10.25,73738.3,0.67,-36.67,-36.97,0,*4F
1485169692.71,915,10.31,73742.8,0.67,-36.85,-37.15,0,*49
1485169693.94,916,10.25,73742.0,0.67,-37.15,-37.39,0,*4C
1485169695.21,917,10.25,73738.5,0.67,-37.21,-37.51,0,*44
1485169696.44,918,10.25,73738.8,0.67,-37.15,-37.39,0,*42
1485169697.67,919,10.25,73740.3,0.67,-37.57,-37.69,0,*40
1485169698.93,920,10.25,73738.5,0.67,-37.21,-37.51,0,*40
1485169700.17,921,10.25,73738.0,0.67,-37.15,-37.39,0,*48
1485169701.37,922,10.25,73738.5,0.67,-37.03,-37.33,0,*46
1485169702.6,923,10.31,73742.8,0.67,-36.97,-37.21,0,*48
1485169703.87,924,10.25,73736.8,0.67,-37.21,-37.51,0,*44
1485169705.08,925,10.25,73738.5,0.67,-37.57,-37.87,0,*4F
1485169706.33,926,10.25,73736.0,0.67,-37.69,-38.11,0,*41
1485169707.56,927,10.25,73738.5,0.67,-37.75,-38.11,0,*4D
1485169708.74,928,10.25,73736.8,0.65,-37.57,-37.87,0,*40
1485169709.94,929,10.31,73738.5,0.65,-37.51,-37.75,0,*4A
1485169711.13,930,10.31,73742.8,0.65,-37.33,-37.69,0,*4B
1485169712.34,931,10.25,73738.3,0.63,-37.27,-37.57,0,*44